C2008 KCRP-KNBG

Flight info

Callsign C2008
Flight time 2h 5m
Altitude 5000
Route VFR FF
Aircraft C30J/M-VW/C

Departure

Time 2026-04-27 02:26
Airport Corpus Christi International Airport (KCRP)

Arrival

Time 2026-04-27 04:32
Airport New Orleans NAS JRB/Alvin Callender Field (KNBG)
Time Latitude Longitude Altitude Speed Heading
2026-04-27 02:09 27.77742 -97.50723 51 ft 0 kts 226°
2026-04-27 02:22 27.77742 -97.50737 48 ft 2 kts 292°
2026-04-27 02:23 27.77801 -97.50759 48 ft 17 kts 344°
2026-04-27 02:23 27.77893 -97.50846 52 ft 13 kts 315°
2026-04-27 02:23 27.77904 -97.50947 48 ft 20 kts 227°
2026-04-27 02:23 27.77783 -97.51089 47 ft 23 kts 228°
2026-04-27 02:24 27.77728 -97.51208 45 ft 15 kts 270°
2026-04-27 02:24 27.77728 -97.51279 44 ft 4 kts 237°
2026-04-27 02:24 27.77722 -97.51289 42 ft 0 kts 237°
2026-04-27 02:24 27.77712 -97.51303 40 ft 11 kts 224°
2026-04-27 02:25 27.77640 -97.51269 41 ft 16 kts 137°
2026-04-27 02:25 27.77353 -97.50956 49 ft 107 kts 137°
2026-04-27 02:25 27.76650 -97.50203 121 ft 150 kts 137°
2026-04-27 02:25 27.75857 -97.49374 289 ft 164 kts 137°
2026-04-27 02:26 27.74973 -97.48467 576 ft 178 kts 138°
2026-04-27 02:26 27.74034 -97.47498 854 ft 187 kts 137°
2026-04-27 02:26 27.73073 -97.46487 1185 ft 190 kts 137°
2026-04-27 02:26 27.72102 -97.45468 1483 ft 192 kts 137°
2026-04-27 02:27 27.71403 -97.44207 1826 ft 201 kts 105°
2026-04-27 02:27 27.71629 -97.42605 2122 ft 221 kts 65°
2026-04-27 02:27 27.72758 -97.41350 2452 ft 238 kts 38°
2026-04-27 02:27 27.74209 -97.40364 2776 ft 247 kts 33°
2026-04-27 02:28 27.75718 -97.39383 3095 ft 253 kts 33°
2026-04-27 02:28 27.77253 -97.38378 3397 ft 257 kts 33°
2026-04-27 02:28 27.78818 -97.37365 3711 ft 261 kts 33°
2026-04-27 02:28 27.80397 -97.36343 4007 ft 263 kts 33°
2026-04-27 02:29 27.81861 -97.35141 4300 ft 258 kts 49°
2026-04-27 02:29 27.83053 -97.33638 4615 ft 257 kts 52°
2026-04-27 02:29 27.84205 -97.32096 4889 ft 256 kts 53°
2026-04-27 02:29 27.85359 -97.30556 5194 ft 257 kts 53°
2026-04-27 02:30 27.86514 -97.29000 5398 ft 264 kts 52°
2026-04-27 02:30 27.87706 -97.27376 5298 ft 271 kts 53°
2026-04-27 02:30 27.88903 -97.25734 5278 ft 270 kts 53°
2026-04-27 02:30 27.90087 -97.24108 5286 ft 268 kts 53°
2026-04-27 02:31 27.91277 -97.22490 5287 ft 267 kts 53°
2026-04-27 02:31 27.92438 -97.20894 5289 ft 267 kts 53°
2026-04-27 02:31 27.93619 -97.19269 5295 ft 267 kts 53°
2026-04-27 02:31 27.94812 -97.17629 5290 ft 266 kts 52°
2026-04-27 02:32 27.96002 -97.16019 5287 ft 267 kts 53°
2026-04-27 02:32 27.97192 -97.14420 5276 ft 266 kts 52°
2026-04-27 02:32 27.98375 -97.12820 5279 ft 266 kts 53°
2026-04-27 02:32 27.99563 -97.11203 5275 ft 267 kts 53°
2026-04-27 02:33 28.00755 -97.09598 5276 ft 266 kts 53°
2026-04-27 02:33 28.01949 -97.08003 5285 ft 265 kts 52°
2026-04-27 02:33 28.03134 -97.06400 5278 ft 266 kts 54°
2026-04-27 02:33 28.04266 -97.04857 5281 ft 266 kts 53°
2026-04-27 02:34 28.05446 -97.03247 5273 ft 265 kts 53°
2026-04-27 02:34 28.06625 -97.01649 5271 ft 264 kts 54°
2026-04-27 02:34 28.07805 -97.00055 5276 ft 264 kts 52°
2026-04-27 02:34 28.08984 -96.98448 5272 ft 266 kts 53°
2026-04-27 02:35 28.10191 -96.96799 4958 ft 278 kts 53°
2026-04-27 02:35 28.11449 -96.95090 4631 ft 286 kts 53°
2026-04-27 02:35 28.12734 -96.93365 4279 ft 289 kts 53°
2026-04-27 02:35 28.14036 -96.91621 3953 ft 291 kts 53°
2026-04-27 02:36 28.15344 -96.89868 3658 ft 292 kts 53°
2026-04-27 02:36 28.16639 -96.88124 3553 ft 286 kts 53°
2026-04-27 02:36 28.17908 -96.86437 3313 ft 280 kts 53°
2026-04-27 02:36 28.19177 -96.84757 2925 ft 281 kts 53°
2026-04-27 02:37 28.20451 -96.83083 2641 ft 277 kts 53°
2026-04-27 02:37 28.21679 -96.81469 2580 ft 267 kts 53°
2026-04-27 02:37 28.22884 -96.79905 2537 ft 260 kts 52°
2026-04-27 02:37 28.24071 -96.78370 2464 ft 256 kts 53°
2026-04-27 02:38 28.25238 -96.76863 2333 ft 256 kts 53°
2026-04-27 02:38 28.26371 -96.75400 2682 ft 242 kts 53°
2026-04-27 02:38 28.27498 -96.73961 3040 ft 245 kts 52°
2026-04-27 02:38 28.28625 -96.72507 3405 ft 246 kts 53°
2026-04-27 02:39 28.29757 -96.71044 3768 ft 247 kts 53°
2026-04-27 02:39 28.30891 -96.69586 4115 ft 248 kts 52°
2026-04-27 02:39 28.32022 -96.68104 4481 ft 249 kts 53°
2026-04-27 02:39 28.33146 -96.66610 4838 ft 250 kts 53°
2026-04-27 02:40 28.34285 -96.65068 4967 ft 260 kts 53°
2026-04-27 02:40 28.35461 -96.63453 5006 ft 271 kts 53°
2026-04-27 02:40 28.36676 -96.61777 4989 ft 279 kts 53°
2026-04-27 02:40 28.37916 -96.60067 4996 ft 283 kts 53°
2026-04-27 02:41 28.39175 -96.58328 4986 ft 286 kts 53°
2026-04-27 02:41 28.40445 -96.56576 4986 ft 288 kts 53°
2026-04-27 02:41 28.41707 -96.54834 4981 ft 290 kts 53°
2026-04-27 02:41 28.43007 -96.53044 4983 ft 290 kts 53°
2026-04-27 02:42 28.44186 -96.51235 4984 ft 289 kts 61°
2026-04-27 02:42 28.45191 -96.49266 4984 ft 289 kts 63°
2026-04-27 02:42 28.46185 -96.47280 4983 ft 289 kts 63°
2026-04-27 02:42 28.47178 -96.45294 4983 ft 289 kts 63°
2026-04-27 02:43 28.48182 -96.43286 4983 ft 289 kts 63°
2026-04-27 02:43 28.49176 -96.41298 4986 ft 289 kts 63°
2026-04-27 02:43 28.50167 -96.39317 4982 ft 289 kts 63°
2026-04-27 02:43 28.51165 -96.37327 4990 ft 289 kts 63°
2026-04-27 02:44 28.52152 -96.35365 4996 ft 290 kts 63°
2026-04-27 02:44 28.53157 -96.33372 4993 ft 291 kts 63°
2026-04-27 02:44 28.54175 -96.31349 4996 ft 292 kts 63°
2026-04-27 02:44 28.55170 -96.29378 4995 ft 292 kts 63°
2026-04-27 02:45 28.56183 -96.27372 4995 ft 292 kts 63°
2026-04-27 02:45 28.57195 -96.25369 4996 ft 293 kts 63°
2026-04-27 02:45 28.58209 -96.23364 4995 ft 292 kts 63°
2026-04-27 02:45 28.59223 -96.21360 4994 ft 292 kts 63°
2026-04-27 02:46 28.60233 -96.19360 4996 ft 292 kts 63°
2026-04-27 02:46 28.61246 -96.17360 4997 ft 292 kts 63°
2026-04-27 02:46 28.62259 -96.15360 4993 ft 292 kts 63°
2026-04-27 02:46 28.63272 -96.13360 4996 ft 291 kts 63°
2026-04-27 02:47 28.64280 -96.11366 4994 ft 291 kts 63°
2026-04-27 02:47 28.65290 -96.09363 4994 ft 291 kts 63°
2026-04-27 02:47 28.66295 -96.07367 5001 ft 291 kts 63°
2026-04-27 02:47 28.67302 -96.05364 4993 ft 291 kts 63°
2026-04-27 02:48 28.68312 -96.03360 4995 ft 292 kts 63°
2026-04-27 02:48 28.69316 -96.01362 5005 ft 292 kts 63°
2026-04-27 02:48 28.70326 -95.99353 4988 ft 292 kts 63°
2026-04-27 02:48 28.71334 -95.97343 4995 ft 292 kts 63°
2026-04-27 02:49 28.72340 -95.95349 4991 ft 288 kts 63°
2026-04-27 02:49 28.72999 -95.94043 4990 ft 286 kts 63°
2026-04-27 02:49 28.73988 -95.92094 4999 ft 283 kts 63°
2026-04-27 02:49 28.74970 -95.90163 4992 ft 281 kts 63°
2026-04-27 02:50 28.75945 -95.88245 4997 ft 279 kts 63°
2026-04-27 02:50 28.76913 -95.86338 5013 ft 278 kts 63°
2026-04-27 02:50 28.77883 -95.84428 4992 ft 278 kts 63°
2026-04-27 02:50 28.78852 -95.82516 5001 ft 278 kts 63°
2026-04-27 02:51 28.79818 -95.80610 5007 ft 278 kts 63°
2026-04-27 02:51 28.80783 -95.78698 4998 ft 278 kts 63°
2026-04-27 02:51 28.81742 -95.76791 4998 ft 278 kts 63°
2026-04-27 02:51 28.82707 -95.74880 5011 ft 278 kts 63°
2026-04-27 02:52 28.83669 -95.72965 4988 ft 279 kts 63°
2026-04-27 02:52 28.84642 -95.71051 4978 ft 279 kts 63°
2026-04-27 02:52 28.85620 -95.69140 4983 ft 278 kts 63°
2026-04-27 02:52 28.86592 -95.67231 4985 ft 278 kts 63°
2026-04-27 02:53 28.87566 -95.65326 4986 ft 278 kts 63°
2026-04-27 02:53 28.88543 -95.63417 4989 ft 278 kts 63°
2026-04-27 02:53 28.89519 -95.61510 4986 ft 279 kts 63°
2026-04-27 02:53 28.90495 -95.59599 4969 ft 279 kts 63°
2026-04-27 02:54 28.91474 -95.57689 4967 ft 279 kts 63°
2026-04-27 02:54 28.92454 -95.55778 4972 ft 279 kts 63°
2026-04-27 02:54 28.93433 -95.53869 4971 ft 278 kts 63°
2026-04-27 02:54 28.94411 -95.51958 4971 ft 279 kts 63°
2026-04-27 02:55 28.95390 -95.50041 4972 ft 279 kts 63°
2026-04-27 02:55 28.96367 -95.48130 4968 ft 279 kts 63°
2026-04-27 02:55 28.97349 -95.46214 4970 ft 279 kts 63°
2026-04-27 02:55 28.98317 -95.44301 4970 ft 279 kts 65°
2026-04-27 02:56 28.99202 -95.42330 4969 ft 278 kts 67°
2026-04-27 02:56 29.00062 -95.40355 4968 ft 278 kts 67°
2026-04-27 02:56 29.00923 -95.38379 4972 ft 278 kts 67°
2026-04-27 02:56 29.01786 -95.36407 4969 ft 277 kts 67°
2026-04-27 02:57 29.02647 -95.34437 4969 ft 277 kts 67°
2026-04-27 02:57 29.03503 -95.32472 4960 ft 277 kts 67°
2026-04-27 02:57 29.04357 -95.30500 4971 ft 277 kts 67°
2026-04-27 02:57 29.05211 -95.28531 4969 ft 277 kts 67°
2026-04-27 02:58 29.06063 -95.26560 4975 ft 277 kts 67°
2026-04-27 02:58 29.06919 -95.24583 4973 ft 277 kts 67°
2026-04-27 02:58 29.07772 -95.22609 4975 ft 278 kts 67°
2026-04-27 02:58 29.08622 -95.20641 4972 ft 277 kts 67°
2026-04-27 02:59 29.09474 -95.18661 4975 ft 278 kts 67°
2026-04-27 02:59 29.10327 -95.16680 4977 ft 278 kts 67°
2026-04-27 02:59 29.11185 -95.14693 4976 ft 278 kts 67°
2026-04-27 02:59 29.12040 -95.12710 4986 ft 278 kts 67°
2026-04-27 03:00 29.12948 -95.10756 4983 ft 280 kts 61°
2026-04-27 03:00 29.14072 -95.08929 4988 ft 281 kts 57°
2026-04-27 03:00 29.15224 -95.07129 4991 ft 281 kts 57°
2026-04-27 03:00 29.16374 -95.05323 4995 ft 281 kts 57°
2026-04-27 03:01 29.17524 -95.03518 4995 ft 281 kts 57°
2026-04-27 03:01 29.18651 -95.01747 4992 ft 269 kts 57°
2026-04-27 03:01 29.19739 -95.00048 4989 ft 261 kts 57°
2026-04-27 03:01 29.20794 -94.98400 4993 ft 255 kts 57°
2026-04-27 03:02 29.21832 -94.96776 4996 ft 251 kts 57°
2026-04-27 03:02 29.22858 -94.95171 4992 ft 249 kts 57°
2026-04-27 03:02 29.23881 -94.93578 4999 ft 248 kts 57°
2026-04-27 03:02 29.24901 -94.91995 5039 ft 245 kts 57°
2026-04-27 03:03 29.25891 -94.90452 5013 ft 238 kts 57°
2026-04-27 03:03 29.27800 -94.87511 4505 ft 224 kts 57°
2026-04-27 03:03 29.28723 -94.86119 4214 ft 214 kts 57°
2026-04-27 03:04 29.29620 -94.84789 3917 ft 204 kts 57°
2026-04-27 03:04 29.30473 -94.83535 3725 ft 193 kts 57°
2026-04-27 03:04 29.31272 -94.82385 3682 ft 175 kts 57°
2026-04-27 03:04 29.32005 -94.81331 3688 ft 173 kts 58°
2026-04-27 03:05 29.32793 -94.80269 3700 ft 179 kts 47°
2026-04-27 03:05 29.33841 -94.79407 3701 ft 188 kts 35°
2026-04-27 03:05 29.34982 -94.78639 3702 ft 196 kts 33°
2026-04-27 03:05 29.36188 -94.77867 3707 ft 203 kts 32°
2026-04-27 03:06 29.37455 -94.77065 3701 ft 213 kts 32°
2026-04-27 03:06 29.38760 -94.76231 3700 ft 217 kts 32°
2026-04-27 03:06 29.40176 -94.75601 3695 ft 221 kts 12°
2026-04-27 03:06 29.41699 -94.75347 3690 ft 221 kts
2026-04-27 03:07 29.43217 -94.75152 3687 ft 220 kts
2026-04-27 03:07 29.44746 -94.74967 3526 ft 227 kts
2026-04-27 03:07 29.46340 -94.74781 3189 ft 232 kts
2026-04-27 03:07 29.47926 -94.74601 2856 ft 226 kts
2026-04-27 03:08 29.49478 -94.74430 2521 ft 221 kts
2026-04-27 03:08 29.51001 -94.74271 2168 ft 219 kts
2026-04-27 03:08 29.52476 -94.74118 1996 ft 204 kts
2026-04-27 03:08 29.53837 -94.73985 1971 ft 192 kts
2026-04-27 03:09 29.55161 -94.73857 1980 ft 191 kts
2026-04-27 03:09 29.56479 -94.73732 1973 ft 189 kts
2026-04-27 03:09 29.57778 -94.73609 1985 ft 186 kts
2026-04-27 03:09 29.59072 -94.73490 1978 ft 187 kts
2026-04-27 03:10 29.60372 -94.73370 1989 ft 188 kts
2026-04-27 03:10 29.61680 -94.73257 1984 ft 188 kts
2026-04-27 03:10 29.62984 -94.73139 1979 ft 189 kts
2026-04-27 03:10 29.64294 -94.73022 1969 ft 188 kts
2026-04-27 03:11 29.65578 -94.73111 1962 ft 183 kts 348°
2026-04-27 03:11 29.66798 -94.73465 1974 ft 178 kts 342°
2026-04-27 03:11 29.67928 -94.73999 1970 ft 173 kts 327°
2026-04-27 03:11 29.68914 -94.74739 1974 ft 166 kts 315°
2026-04-27 03:12 29.69733 -94.75647 1988 ft 161 kts 308°
2026-04-27 03:12 29.70464 -94.76586 1995 ft 155 kts 306°
2026-04-27 03:12 29.71085 -94.77577 1980 ft 150 kts 289°
2026-04-27 03:12 29.71446 -94.78658 1983 ft 141 kts 280°
2026-04-27 03:13 29.71711 -94.79718 1968 ft 135 kts 277°
2026-04-27 03:13 29.71949 -94.80762 1983 ft 139 kts 276°
2026-04-27 03:13 29.71965 -94.81857 1990 ft 137 kts 251°
2026-04-27 03:13 29.71670 -94.82896 1993 ft 137 kts 239°
2026-04-27 03:14 29.71161 -94.83797 1976 ft 134 kts 221°
2026-04-27 03:14 29.70478 -94.84526 1987 ft 134 kts 214°
2026-04-27 03:14 29.69744 -94.85209 1979 ft 137 kts 212°
2026-04-27 03:14 29.68993 -94.85896 1979 ft 139 kts 212°
2026-04-27 03:15 29.68227 -94.86584 1975 ft 140 kts 212°
2026-04-27 03:15 29.67473 -94.87275 1978 ft 139 kts 217°
2026-04-27 03:15 29.66859 -94.88139 1981 ft 140 kts 229°
2026-04-27 03:15 29.66349 -94.89094 1970 ft 142 kts 234°
2026-04-27 03:16 29.65923 -94.90119 1969 ft 142 kts 239°
2026-04-27 03:16 29.65525 -94.91149 1974 ft 141 kts 239°
2026-04-27 03:16 29.65132 -94.92175 1971 ft 139 kts 239°
2026-04-27 03:16 29.64754 -94.93183 1971 ft 136 kts 239°
2026-04-27 03:17 29.64388 -94.94180 1987 ft 135 kts 239°
2026-04-27 03:17 29.64001 -94.95160 1981 ft 134 kts 237°
2026-04-27 03:17 29.63530 -94.96064 1985 ft 129 kts 223°
2026-04-27 03:17 29.62897 -94.96766 1970 ft 123 kts 211°
2026-04-27 03:18 29.62202 -94.97288 1974 ft 119 kts 205°
2026-04-27 03:18 29.61485 -94.97748 1985 ft 118 kts 203°
2026-04-27 03:18 29.60756 -94.98192 1976 ft 119 kts 200°
2026-04-27 03:18 29.59989 -94.98553 1987 ft 119 kts 195°
2026-04-27 03:19 29.59185 -94.98851 1971 ft 120 kts 193°
2026-04-27 03:19 29.58384 -94.99119 1983 ft 120 kts 192°
2026-04-27 03:19 29.57582 -94.99366 1988 ft 119 kts 187°
2026-04-27 03:19 29.56751 -94.99405 1983 ft 121 kts 177°
2026-04-27 03:20 29.55909 -94.99312 1972 ft 122 kts 173°
2026-04-27 03:20 29.55066 -94.99187 1973 ft 122 kts 172°
2026-04-27 03:20 29.54243 -94.99004 1973 ft 120 kts 160°
2026-04-27 03:20 29.53570 -94.98454 1982 ft 123 kts 141°
2026-04-27 03:21 29.53011 -94.97701 1982 ft 125 kts 135°
2026-04-27 03:21 29.52501 -94.96892 1983 ft 127 kts 128°
2026-04-27 03:21 29.52187 -94.95927 1993 ft 132 kts 112°
2026-04-27 03:21 29.52025 -94.94882 1979 ft 134 kts 107°
2026-04-27 03:22 29.51905 -94.93821 1986 ft 134 kts 105°
2026-04-27 03:22 29.51841 -94.92747 1977 ft 139 kts 91°
2026-04-27 03:22 29.52175 -94.91685 1988 ft 145 kts 70°
2026-04-27 03:22 29.52704 -94.90678 1990 ft 150 kts 65°
2026-04-27 03:23 29.53297 -94.89679 1966 ft 152 kts 63°
2026-04-27 03:23 29.53906 -94.88692 1974 ft 151 kts 62°
2026-04-27 03:23 29.54514 -94.87711 1982 ft 151 kts 62°
2026-04-27 03:23 29.55127 -94.86726 1981 ft 152 kts 63°
2026-04-27 03:24 29.55750 -94.85741 1975 ft 152 kts 62°
2026-04-27 03:24 29.56372 -94.84765 1966 ft 150 kts 62°
2026-04-27 03:24 29.56977 -94.83808 1974 ft 147 kts 62°
2026-04-27 03:24 29.57570 -94.82861 1987 ft 146 kts 62°
2026-04-27 03:25 29.58162 -94.81906 1983 ft 148 kts 62°
2026-04-27 03:25 29.58761 -94.80928 1979 ft 151 kts 62°
2026-04-27 03:25 29.59365 -94.79934 1974 ft 152 kts 61°
2026-04-27 03:25 29.59965 -94.78940 1983 ft 152 kts 62°
2026-04-27 03:26 29.60629 -94.77976 1975 ft 157 kts 52°
2026-04-27 03:26 29.61459 -94.77137 1980 ft 161 kts 45°
2026-04-27 03:26 29.62355 -94.76346 1979 ft 163 kts 42°
2026-04-27 03:26 29.63264 -94.75561 1981 ft 164 kts 42°
2026-04-27 03:27 29.64162 -94.74793 1990 ft 158 kts 43°
2026-04-27 03:27 29.65094 -94.74005 1971 ft 171 kts 41°
2026-04-27 03:27 29.66187 -94.73375 1972 ft 182 kts 14°
2026-04-27 03:27 29.67405 -94.73630 1972 ft 180 kts 322°
2026-04-27 03:28 29.68035 -94.74788 1974 ft 171 kts 271°
2026-04-27 03:28 29.67848 -94.76108 1980 ft 168 kts 242°
2026-04-27 03:28 29.67274 -94.77345 1982 ft 186 kts 233°
2026-04-27 03:28 29.66520 -94.78667 1962 ft 208 kts 231°
2026-04-27 03:29 29.65676 -94.80101 1991 ft 223 kts 231°
2026-04-27 03:29 29.64777 -94.81611 1982 ft 234 kts 231°
2026-04-27 03:29 29.63824 -94.83152 1982 ft 238 kts 225°
2026-04-27 03:29 29.62488 -94.84141 2262 ft 218 kts 195°
2026-04-27 03:30 29.61024 -94.84385 2899 ft 210 kts 179°
2026-04-27 03:30 29.59583 -94.84220 3514 ft 207 kts 171°
2026-04-27 03:30 29.58248 -94.83605 4101 ft 210 kts 150°
2026-04-27 03:30 29.57292 -94.82312 4660 ft 218 kts 125°
2026-04-27 03:31 29.56560 -94.80724 4932 ft 234 kts 122°
2026-04-27 03:31 29.55785 -94.78998 4990 ft 251 kts 122°
2026-04-27 03:31 29.54956 -94.77177 4993 ft 263 kts 122°
2026-04-27 03:31 29.54092 -94.75289 4991 ft 271 kts 122°
2026-04-27 03:32 29.53205 -94.73358 4990 ft 275 kts 122°
2026-04-27 03:32 29.52342 -94.71379 4992 ft 280 kts 116°
2026-04-27 03:32 29.51922 -94.69166 4994 ft 287 kts 101°
2026-04-27 03:32 29.51686 -94.66890 4989 ft 288 kts 100°
2026-04-27 03:33 29.51855 -94.64586 4984 ft 295 kts 78°
2026-04-27 03:33 29.52250 -94.63086 4988 ft 296 kts 76°
2026-04-27 03:33 29.52874 -94.60826 4988 ft 297 kts 76°
2026-04-27 03:33 29.53712 -94.57810 4987 ft 297 kts 76°
2026-04-27 03:34 29.54127 -94.56311 4984 ft 297 kts 76°
2026-04-27 03:34 29.54758 -94.54054 4992 ft 296 kts 76°
2026-04-27 03:34 29.55376 -94.51877 4987 ft 281 kts 76°
2026-04-27 03:34 29.55974 -94.49773 4985 ft 274 kts 76°
2026-04-27 03:35 29.56561 -94.47711 4989 ft 270 kts 76°
2026-04-27 03:35 29.57149 -94.45643 4992 ft 267 kts 76°
2026-04-27 03:35 29.57723 -94.43649 4993 ft 266 kts 76°
2026-04-27 03:35 29.58302 -94.41637 4994 ft 265 kts 76°
2026-04-27 03:36 29.58877 -94.39630 4993 ft 264 kts 76°
2026-04-27 03:36 29.59455 -94.37630 4992 ft 264 kts 76°
2026-04-27 03:36 29.60034 -94.35630 4995 ft 263 kts 76°
2026-04-27 03:36 29.60613 -94.33632 4994 ft 263 kts 76°
2026-04-27 03:37 29.61190 -94.31652 4999 ft 263 kts 76°
2026-04-27 03:37 29.61769 -94.29659 4996 ft 262 kts 78°
2026-04-27 03:37 29.62226 -94.27639 4996 ft 261 kts 81°
2026-04-27 03:37 29.62652 -94.25618 4998 ft 260 kts 81°
2026-04-27 03:38 29.63078 -94.23598 4999 ft 260 kts 81°
2026-04-27 03:38 29.63502 -94.21578 5003 ft 260 kts 81°
2026-04-27 03:38 29.63923 -94.19559 5000 ft 260 kts 81°
2026-04-27 03:38 29.64349 -94.17540 4992 ft 259 kts 81°
2026-04-27 03:39 29.64773 -94.15530 5007 ft 259 kts 81°
2026-04-27 03:39 29.65199 -94.13519 4999 ft 259 kts 81°
2026-04-27 03:39 29.65624 -94.11502 5015 ft 259 kts 81°
2026-04-27 03:39 29.66048 -94.09492 5011 ft 260 kts 81°
2026-04-27 03:40 29.66472 -94.07467 5004 ft 261 kts 81°
2026-04-27 03:40 29.66894 -94.05443 5014 ft 261 kts 81°
2026-04-27 03:40 29.67319 -94.03404 4989 ft 263 kts 81°
2026-04-27 03:40 29.67748 -94.01358 4988 ft 265 kts 81°
2026-04-27 03:41 29.68176 -93.99290 4982 ft 265 kts 81°
2026-04-27 03:41 29.68604 -93.97227 4986 ft 266 kts 81°
2026-04-27 03:41 29.69037 -93.95155 4986 ft 266 kts 81°
2026-04-27 03:41 29.69475 -93.93090 4990 ft 266 kts 81°
2026-04-27 03:42 29.69913 -93.91022 4995 ft 266 kts 81°
2026-04-27 03:42 29.70348 -93.88956 4986 ft 267 kts 81°
2026-04-27 03:42 29.70783 -93.86880 4993 ft 267 kts 81°
2026-04-27 03:42 29.71215 -93.84805 4992 ft 267 kts 81°
2026-04-27 03:43 29.71651 -93.82731 4989 ft 268 kts 81°
2026-04-27 03:43 29.72093 -93.80652 4992 ft 267 kts 81°
2026-04-27 03:43 29.72521 -93.78574 4988 ft 267 kts 81°
2026-04-27 03:43 29.72953 -93.76490 4991 ft 268 kts 81°
2026-04-27 03:44 29.73385 -93.74414 4995 ft 267 kts 81°
2026-04-27 03:44 29.73818 -93.72333 4996 ft 267 kts 81°
2026-04-27 03:44 29.74253 -93.70257 4995 ft 267 kts 81°
2026-04-27 03:44 29.74679 -93.68180 4994 ft 266 kts 81°
2026-04-27 03:45 29.75107 -93.66107 4995 ft 267 kts 81°
2026-04-27 03:45 29.75535 -93.64028 4996 ft 266 kts 81°
2026-04-27 03:45 29.75950 -93.61955 4996 ft 265 kts 83°
2026-04-27 03:45 29.76254 -93.59864 4996 ft 265 kts 86°
2026-04-27 03:46 29.76518 -93.57765 4989 ft 265 kts 86°
2026-04-27 03:46 29.76787 -93.55672 4992 ft 265 kts 86°
2026-04-27 03:46 29.77050 -93.53578 4993 ft 264 kts 86°
2026-04-27 03:46 29.77316 -93.51487 4990 ft 264 kts 86°
2026-04-27 03:47 29.77588 -93.49397 4998 ft 263 kts 86°
2026-04-27 03:47 29.77849 -93.47315 4999 ft 263 kts 86°
2026-04-27 03:47 29.78110 -93.45235 4997 ft 263 kts 86°
2026-04-27 03:47 29.78377 -93.43156 5010 ft 263 kts 86°
2026-04-27 03:48 29.78633 -93.41066 5005 ft 263 kts 90°
2026-04-27 03:48 29.78671 -93.38970 5001 ft 262 kts 96°
2026-04-27 03:48 29.78633 -93.36880 5005 ft 261 kts 96°
2026-04-27 03:48 29.78593 -93.34784 5007 ft 262 kts 96°
2026-04-27 03:49 29.78552 -93.32692 5006 ft 262 kts 96°
2026-04-27 03:49 29.78511 -93.30597 5008 ft 262 kts 96°
2026-04-27 03:49 29.78469 -93.28504 5008 ft 262 kts 96°
2026-04-27 03:49 29.78428 -93.26404 5004 ft 262 kts 96°
2026-04-27 03:50 29.78394 -93.24315 5000 ft 262 kts 96°
2026-04-27 03:50 29.78362 -93.22226 5012 ft 261 kts 96°
2026-04-27 03:50 29.78322 -93.20139 5017 ft 261 kts 96°
2026-04-27 03:50 29.78285 -93.18051 5018 ft 261 kts 96°
2026-04-27 03:51 29.78251 -93.15963 5017 ft 261 kts 96°
2026-04-27 03:51 29.78214 -93.13877 5015 ft 260 kts 96°
2026-04-27 03:51 29.78178 -93.11800 5015 ft 260 kts 97°
2026-04-27 03:51 29.77942 -93.09761 5020 ft 255 kts 110°
2026-04-27 03:52 29.77391 -93.07837 5016 ft 253 kts 115°
2026-04-27 03:52 29.76793 -93.05937 5016 ft 253 kts 115°
2026-04-27 03:52 29.76188 -93.04036 5017 ft 253 kts 115°
2026-04-27 03:52 29.75573 -93.02143 5018 ft 253 kts 115°
2026-04-27 03:53 29.74957 -93.00243 5022 ft 254 kts 115°
2026-04-27 03:53 29.74339 -92.98339 5020 ft 254 kts 115°
2026-04-27 03:53 29.73726 -92.96432 5020 ft 254 kts 115°
2026-04-27 03:53 29.73113 -92.94525 5021 ft 254 kts 115°
2026-04-27 03:54 29.72493 -92.92621 5021 ft 254 kts 115°
2026-04-27 03:54 29.71870 -92.90714 5018 ft 255 kts 115°
2026-04-27 03:54 29.71248 -92.88807 5023 ft 255 kts 115°
2026-04-27 03:54 29.70624 -92.86895 5024 ft 255 kts 115°
2026-04-27 03:55 29.70008 -92.84979 5025 ft 255 kts 115°
2026-04-27 03:55 29.69399 -92.83066 5026 ft 255 kts 115°
2026-04-27 03:55 29.68787 -92.81159 5024 ft 254 kts 115°
2026-04-27 03:55 29.68176 -92.79255 5027 ft 254 kts 115°
2026-04-27 03:56 29.67562 -92.77344 5024 ft 256 kts 115°
2026-04-27 03:56 29.66926 -92.75382 5026 ft 267 kts 115°
2026-04-27 03:56 29.66255 -92.73356 5030 ft 274 kts 115°
2026-04-27 03:56 29.65564 -92.71296 5030 ft 278 kts 115°
2026-04-27 03:57 29.64865 -92.69205 5029 ft 281 kts 115°
2026-04-27 03:57 29.64167 -92.67106 5016 ft 281 kts 115°
2026-04-27 03:57 29.63459 -92.65008 5024 ft 281 kts 115°
2026-04-27 03:57 29.62745 -92.62911 5028 ft 281 kts 115°
2026-04-27 03:58 29.62042 -92.60824 5028 ft 281 kts 115°
2026-04-27 03:58 29.61339 -92.58727 5032 ft 281 kts 115°
2026-04-27 03:58 29.60704 -92.56626 5025 ft 285 kts 106°
2026-04-27 03:58 29.60424 -92.54363 5032 ft 287 kts 100°
2026-04-27 03:59 29.60206 -92.52086 5035 ft 287 kts 100°
2026-04-27 03:59 29.59992 -92.49809 5033 ft 287 kts 100°
2026-04-27 03:59 29.59776 -92.47528 5035 ft 287 kts 100°
2026-04-27 03:59 29.59557 -92.45248 5034 ft 287 kts 100°
2026-04-27 04:00 29.59340 -92.42981 5034 ft 278 kts 100°
2026-04-27 04:00 29.59139 -92.40799 5039 ft 272 kts 100°
2026-04-27 04:00 29.58948 -92.38660 5030 ft 268 kts 100°
2026-04-27 04:00 29.58758 -92.36546 5035 ft 265 kts 100°
2026-04-27 04:01 29.58569 -92.34446 5041 ft 264 kts 100°
2026-04-27 04:01 29.58380 -92.32354 5036 ft 263 kts 100°
2026-04-27 04:01 29.58190 -92.30269 5036 ft 263 kts 100°
2026-04-27 04:01 29.57998 -92.28181 5028 ft 262 kts 99°
2026-04-27 04:02 29.57797 -92.26106 5040 ft 261 kts 100°
2026-04-27 04:02 29.57639 -92.24024 5039 ft 263 kts 95°
2026-04-27 04:02 29.57703 -92.21923 5049 ft 264 kts 90°
2026-04-27 04:02 29.57812 -92.19819 5044 ft 264 kts 90°
2026-04-27 04:03 29.57919 -92.17723 5041 ft 264 kts 90°
2026-04-27 04:03 29.58024 -92.15617 5041 ft 264 kts 90°
2026-04-27 04:03 29.58122 -92.13538 5041 ft 264 kts 90°
2026-04-27 04:03 29.58231 -92.11431 5043 ft 264 kts 90°
2026-04-27 04:04 29.58337 -92.09330 5045 ft 264 kts 90°
2026-04-27 04:04 29.58442 -92.07230 5045 ft 264 kts 90°
2026-04-27 04:04 29.58628 -92.05121 5043 ft 266 kts 83°
2026-04-27 04:04 29.59026 -92.03041 5044 ft 267 kts 80°
2026-04-27 04:05 29.59448 -92.00967 5043 ft 266 kts 80°
2026-04-27 04:05 29.59865 -91.98898 5041 ft 266 kts 80°
2026-04-27 04:05 29.60287 -91.96825 5045 ft 266 kts 80°
2026-04-27 04:05 29.60708 -91.94756 5047 ft 266 kts 80°
2026-04-27 04:06 29.61092 -91.92680 5042 ft 265 kts 82°
2026-04-27 04:06 29.61425 -91.90598 5041 ft 265 kts 83°
2026-04-27 04:06 29.61738 -91.88508 5044 ft 265 kts 83°
2026-04-27 04:07 29.62358 -91.84323 5040 ft 265 kts 83°
2026-04-27 04:07 29.62665 -91.82237 5049 ft 265 kts 83°
2026-04-27 04:07 29.62973 -91.80152 5046 ft 265 kts 83°
2026-04-27 04:07 29.63283 -91.78070 5050 ft 264 kts 83°
2026-04-27 04:08 29.63592 -91.75990 5045 ft 264 kts 83°
2026-04-27 04:08 29.63899 -91.73911 5051 ft 264 kts 83°
2026-04-27 04:08 29.64213 -91.71827 5050 ft 265 kts 83°
2026-04-27 04:08 29.64525 -91.69745 5056 ft 264 kts 83°
2026-04-27 04:09 29.64834 -91.67661 5057 ft 265 kts 83°
2026-04-27 04:09 29.65151 -91.65569 5059 ft 265 kts 83°
2026-04-27 04:09 29.65459 -91.63507 5062 ft 266 kts 83°
2026-04-27 04:09 29.65764 -91.61415 5057 ft 266 kts 83°
2026-04-27 04:10 29.66076 -91.59291 5069 ft 266 kts 83°
2026-04-27 04:10 29.66291 -91.57206 5061 ft 265 kts 87°
2026-04-27 04:10 29.66440 -91.55097 5063 ft 265 kts 88°
2026-04-27 04:10 29.66589 -91.52992 5066 ft 265 kts 88°
2026-04-27 04:11 29.66734 -91.50882 5066 ft 264 kts 88°
2026-04-27 04:11 29.66864 -91.48781 5073 ft 263 kts 88°
2026-04-27 04:11 29.66994 -91.46689 5081 ft 263 kts 88°
2026-04-27 04:11 29.67125 -91.44592 5085 ft 263 kts 88°
2026-04-27 04:12 29.67253 -91.42492 5078 ft 263 kts 88°
2026-04-27 04:12 29.67383 -91.40390 5083 ft 263 kts 88°
2026-04-27 04:12 29.67516 -91.38288 5087 ft 263 kts 88°
2026-04-27 04:12 29.67650 -91.36188 5084 ft 263 kts 88°
2026-04-27 04:13 29.67780 -91.34089 5078 ft 264 kts 88°
2026-04-27 04:13 29.67913 -91.31993 5080 ft 264 kts 88°
2026-04-27 04:13 29.68044 -91.29890 5078 ft 264 kts 88°
2026-04-27 04:13 29.68176 -91.27789 5078 ft 263 kts 88°
2026-04-27 04:14 29.68307 -91.25695 5089 ft 263 kts 88°
2026-04-27 04:14 29.68443 -91.23596 5081 ft 263 kts 88°
2026-04-27 04:14 29.68569 -91.21507 5080 ft 262 kts 89°
2026-04-27 04:14 29.68562 -91.19420 5076 ft 261 kts 95°
2026-04-27 04:15 29.68446 -91.17345 5075 ft 260 kts 96°
2026-04-27 04:15 29.68327 -91.15267 5072 ft 260 kts 96°
2026-04-27 04:15 29.68206 -91.13193 5075 ft 260 kts 96°
2026-04-27 04:15 29.68069 -91.11115 5076 ft 261 kts 96°
2026-04-27 04:16 29.67939 -91.09037 5069 ft 261 kts 96°
2026-04-27 04:16 29.67816 -91.06955 5075 ft 261 kts 96°
2026-04-27 04:16 29.67686 -91.04877 5067 ft 261 kts 96°
2026-04-27 04:16 29.67550 -91.02798 5062 ft 260 kts 97°
2026-04-27 04:17 29.67416 -91.00726 5068 ft 260 kts 97°
2026-04-27 04:17 29.67333 -90.99343 5011 ft 262 kts 96°
2026-04-27 04:17 29.67165 -90.96549 4964 ft 262 kts 96°
2026-04-27 04:17 29.67033 -90.94467 4967 ft 261 kts 96°
2026-04-27 04:18 29.66947 -90.93091 4969 ft 260 kts 96°
2026-04-27 04:18 29.66819 -90.91019 4964 ft 260 kts 96°
2026-04-27 04:18 29.66695 -90.88950 4966 ft 259 kts 96°
2026-04-27 04:18 29.66564 -90.86890 4968 ft 259 kts 96°
2026-04-27 04:19 29.66432 -90.84818 4965 ft 259 kts 96°
2026-04-27 04:19 29.66305 -90.82752 4966 ft 259 kts 96°
2026-04-27 04:19 29.66178 -90.80686 4965 ft 259 kts 96°
2026-04-27 04:19 29.66050 -90.78624 4965 ft 259 kts 96°
2026-04-27 04:20 29.65913 -90.76564 4968 ft 259 kts 96°
2026-04-27 04:20 29.65779 -90.74497 4964 ft 260 kts 96°
2026-04-27 04:20 29.65642 -90.72427 4968 ft 260 kts 96°
2026-04-27 04:20 29.65497 -90.70349 4967 ft 261 kts 96°
2026-04-27 04:21 29.65351 -90.68286 4967 ft 261 kts 96°
2026-04-27 04:21 29.65207 -90.66198 4970 ft 262 kts 96°
2026-04-27 04:21 29.65071 -90.64110 4969 ft 262 kts 96°
2026-04-27 04:21 29.64929 -90.62017 4969 ft 262 kts 96°
2026-04-27 04:22 29.64779 -90.59930 4968 ft 262 kts 96°
2026-04-27 04:22 29.64634 -90.57841 4971 ft 262 kts 96°
2026-04-27 04:22 29.64493 -90.55758 4972 ft 262 kts 96°
2026-04-27 04:22 29.64474 -90.53660 4971 ft 263 kts 89°
2026-04-27 04:23 29.64539 -90.51563 4973 ft 263 kts 89°
2026-04-27 04:23 29.64615 -90.49454 4967 ft 263 kts 89°
2026-04-27 04:23 29.64698 -90.47359 4971 ft 263 kts 89°
2026-04-27 04:23 29.64775 -90.45264 4977 ft 262 kts 89°
2026-04-27 04:24 29.64847 -90.43170 4976 ft 263 kts 89°
2026-04-27 04:24 29.64925 -90.41067 4974 ft 264 kts 88°
2026-04-27 04:24 29.65006 -90.38962 4969 ft 263 kts 89°
2026-04-27 04:24 29.65074 -90.36864 4971 ft 263 kts 89°
2026-04-27 04:25 29.65135 -90.34793 4975 ft 263 kts 89°
2026-04-27 04:25 29.65198 -90.32671 4977 ft 263 kts 89°
2026-04-27 04:25 29.65259 -90.30570 4979 ft 263 kts 89°
2026-04-27 04:25 29.65319 -90.28469 4981 ft 263 kts 89°
2026-04-27 04:26 29.65382 -90.26393 4983 ft 263 kts 89°
2026-04-27 04:26 29.65446 -90.24281 4985 ft 263 kts 89°
2026-04-27 04:26 29.65869 -90.22255 4982 ft 263 kts 61°
2026-04-27 04:26 29.67007 -90.20705 4983 ft 248 kts 44°
2026-04-27 04:27 29.68230 -90.19385 4988 ft 233 kts 43°
2026-04-27 04:27 29.69350 -90.18172 5016 ft 216 kts 44°
2026-04-27 04:27 29.70417 -90.16970 4692 ft 213 kts 45°
2026-04-27 04:27 29.71475 -90.15816 4342 ft 207 kts 43°
2026-04-27 04:28 29.72483 -90.14732 3780 ft 190 kts 45°
2026-04-27 04:28 29.73405 -90.13743 3212 ft 173 kts 45°
2026-04-27 04:28 29.74241 -90.12835 2802 ft 153 kts 45°
2026-04-27 04:28 29.74988 -90.12030 2351 ft 146 kts 45°
2026-04-27 04:29 29.75738 -90.11269 1909 ft 140 kts 47°
2026-04-27 04:29 29.76432 -90.10478 1658 ft 139 kts 50°
2026-04-27 04:29 29.77096 -90.09677 1425 ft 137 kts 50°
2026-04-27 04:29 29.77757 -90.08921 1241 ft 136 kts 47°
2026-04-27 04:30 29.78435 -90.08170 1054 ft 134 kts 47°
2026-04-27 04:30 29.79106 -90.07428 874 ft 133 kts 48°
2026-04-27 04:30 29.79758 -90.06693 696 ft 130 kts 49°
2026-04-27 04:30 29.80401 -90.05928 556 ft 136 kts 49°
2026-04-27 04:31 29.81092 -90.05144 384 ft 143 kts 47°
2026-04-27 04:31 29.81814 -90.04338 226 ft 147 kts 46°
2026-04-27 04:31 29.82560 -90.03502 27 ft 149 kts 46°
2026-04-27 04:31 29.83198 -90.02774 8 ft 81 kts 45°
2026-04-27 04:32 29.83424 -90.02530 9 ft 29 kts 44°
2026-04-27 04:32 29.83493 -90.02392 10 ft 14 kts 108°
2026-04-27 04:32 29.83468 -90.02335 11 ft 3 kts 131°
2026-04-27 04:32 29.83398 -90.02264 11 ft 13 kts 161°
2026-04-27 04:33 29.83277 -90.02361 11 ft 31 kts 220°
2026-04-27 04:33 29.83102 -90.02557 11 ft 32 kts 224°
2026-04-27 04:33 29.82972 -90.02704 9 ft 26 kts 224°
2026-04-27 04:33 29.82835 -90.02858 6 ft 29 kts 225°
2026-04-27 04:34 29.82705 -90.03004 8 ft 21 kts 225°
2026-04-27 04:34 29.82581 -90.03120 9 ft 25 kts 203°
2026-04-27 04:34 29.82438 -90.03168 13 ft 18 kts 182°
2026-04-27 04:34 29.82316 -90.03089 13 ft 23 kts 141°
2026-04-27 04:35 29.82182 -90.02961 12 ft 26 kts 140°
2026-04-27 04:35 29.82036 -90.02822 9 ft 29 kts 141°
2026-04-27 04:35 29.81914 -90.02704 10 ft 13 kts 121°
2026-04-27 04:35 29.81950 -90.02606 11 ft 16 kts 51°
2026-04-27 04:36 29.82007 -90.02536 12 ft 6 kts 12°
2026-04-27 04:36 29.82044 -90.02554 12 ft 2 kts 319°